Sisseton, SD

4:48 PM CST on February 10, 2016 (GMT -0600)
Sisseton

Weather History for K8D3 - July, 2014

Change the Weather History Date:

Monday, July 7, 2014

  Actual Average Record
Temperature  
Mean Temperature 71 °F 71 °F  
Max Temperature 79 °F 82 °F 104 °F (1936)
Min Temperature 62 °F 59 °F 41 °F (1934)
Degree Days  
Heating Degree Days 0 0  
Month to date heating degree days 6 3  
Since 1 June heating degree days 41 65  
Since 1 July heating degree days 6 3  
Cooling Degree Days 6 6  
Month to date cooling degree days 35 41  
Year to date cooling degree days 184 158  
Since 1 June cooling degree days 123 135  
Growing Degree Days 21 (Base 50)    
Moisture  
Dew Point 62 °F    
Average Humidity 73    
Maximum Humidity 93    
Minimum Humidity 53    
Precipitation  
Precipitation 0.28 in 0.12 in 2.34 in (1994)
Month to date precipitation 0.96 0.79  
Year to date precipitation 18.00 11.51  
Sea Level Pressure  
Sea Level Pressure 29.72 in    
Wind  
Wind Speed 10 mph (NW)    
Max Wind Speed 28 mph    
Max Gust Speed 35 mph    
T = Trace of Precipitation, MM = Missing Value Source: NWS Daily Summary

Daily Weather History Graph

Daily Weather History Graph

Search for Another Location

Airport or City:

Trip Planner

Search our weather history database for the weather conditions in past years. The results will help you decide how hot, cold, wet, or windy it might be!

Date:

Astronomy

Jul. 07, 2014 Rise Set
Actual Time 5:46 AM CDT 9:19 PM CDT
Civil Twilight 5:08 AM CDT 9:56 PM CDT
Nautical Twilight 4:19 AM CDT 10:45 PM CDT
Astronomical Twilight 3:13 AM CDT 11:50 PM CDT
Moon 4:15 PM CDT (7/7) 1:50 AM CDT (7/7)
Length of Visible Light 16h 47m
Length of Day
15h 32m
Waxing Gibbous, 72% of the Moon is Illuminated
Jul 7
Waxing Gibbous
Jul 12
Full
Jul 18
Last Quarter
Jul 26
New
Aug 3
First Quarter

Hourly Weather History & Observations

Time (CDT) Temp. Dew Point Humidity Pressure Visibility Wind Dir Wind Speed Gust Speed Precip Events Conditions
12:56 AM 66.9 °F 63.0 °F 87% 29.75 in - West 3.5 mph - N/A   Unknown
1:56 AM 66.9 °F 64.9 °F 93% 29.74 in - WSW 5.8 mph - N/A   Unknown
2:56 AM 70.0 °F 64.0 °F 81% 29.71 in - WSW 6.9 mph - N/A   Unknown
3:56 AM 66.0 °F 64.0 °F 93% 29.74 in - NNW 6.9 mph - N/A   Unknown
4:56 AM 66.9 °F 64.0 °F 90% 29.70 in - West 5.8 mph - N/A   Unknown
5:56 AM 70.0 °F 62.1 °F 76% 29.72 in - WNW 10.4 mph - N/A   Unknown
6:56 AM 70.0 °F 64.0 °F 81% 29.72 in - WNW 8.1 mph - N/A   Unknown
7:56 AM 70.0 °F 64.0 °F 81% 29.70 in - NNW 5.8 mph - 0.01 in   Unknown
8:56 AM 73.0 °F 64.9 °F 76% 29.70 in - NW 5.8 mph - N/A   Unknown
9:56 AM 75.0 °F 64.9 °F 71% 29.70 in - NNW 6.9 mph - N/A   Unknown
10:56 AM 75.9 °F 64.0 °F 67% 29.71 in - North 9.2 mph - N/A   Unknown
11:56 AM 78.1 °F 64.9 °F 64% 29.71 in - North 8.1 mph - N/A   Unknown
12:56 PM 77.0 °F 64.0 °F 64% 29.69 in - North 8.1 mph - N/A   Unknown
1:56 PM 75.9 °F 64.0 °F 67% 29.69 in - North 6.9 mph - N/A   Unknown
2:56 PM 73.0 °F 64.9 °F 76% 29.71 in - NNW 10.4 mph - N/A   Unknown
3:24 PM 64.9 °F 63.0 °F 93% 29.78 in - NNW 18.4 mph 25.3 mph 0.09 in   Unknown
3:56 PM 69.1 °F 66.0 °F 90% 29.72 in - West 5.8 mph - 0.27 in   Unknown
4:56 PM 75.0 °F 68.0 °F 79% 29.69 in - NNW 11.5 mph - N/A   Unknown
5:56 PM 75.9 °F 59.0 °F 56% 29.68 in - NNW 18.4 mph 29.9 mph N/A   Unknown
6:56 PM 73.9 °F 55.0 °F 52% 29.69 in - NW 23.0 mph 35.7 mph N/A   Unknown
7:56 PM 71.1 °F 57.0 °F 61% 29.73 in - NNW 21.9 mph 26.5 mph N/A   Unknown
8:56 PM 69.1 °F 57.0 °F 65% 29.74 in - NW 16.1 mph 24.2 mph N/A   Unknown
9:56 PM 64.9 °F 57.9 °F 78% 29.74 in - NW 10.4 mph - N/A   Unknown
10:56 PM 64.9 °F 55.9 °F 73% 29.73 in - NW 11.5 mph - N/A   Unknown
11:56 PM 63.0 °F 55.9 °F 78% 29.73 in - NNW 11.5 mph - N/A   Unknown